#timestamp,LO_Frequency,Hit,StdDev 
1588392015.4,286046995.7,Y
1588392035.2,286046998.6,P
1588392055.0,286047000.7,N
1588392055.9,286047000.7,N
1588392075.8,286046999.0,N
1588392095.6,286046998.3,N
1588392115.5,286046999.3,N
1588392135.3,286046998.2,N
1588392155.1,286047000.7,N
1588392175.9,286047002.3,N
1588392195.7,286047000.8,N
1588392215.6,286047000.5,N
1588392235.4,286046998.6,N
1588392255.2,286046996.9,N
1588392275.1,286046997.2,N
1588392276.0,286046997.2,N
1588392295.8,286046999.1,N
1588392315.6,286046996.8,N
1588392335.5,286046999.2,N
1588392355.3,286046998.6,N
1588392405.2,286046996.9,E
1588392415.1,286047001.2,N
1588392435.9,286047004.4,P
1588392455.7,286047002.8,N
1588392475.5,286046998.6,N
1588392495.4,286047000.1,N
1588392515.2,286047000.2,N
1588392535.0,286046999.9,N
1588392535.9,286046999.9,N
1588392555.8,286047000.4,N
1588392575.6,286047000.7,N
1588392595.5,286047000.3,N
1588392615.3,286047001.6,N
1588392635.1,286047002.5,N
1588392655.9,286047002.5,N
1588392675.7,286047001.1,N
1588392695.6,286047002.4,N
1588392715.4,286047000.2,N
1588392735.2,286047002.0,N
1588392755.1,286047002.3,N
1588392756.0,286047002.3,N
1588392775.8,286047002.8,N
1588392795.7,286047002.6,N
1588392815.5,286047000.6,N
1588392835.3,286047000.8,N
1588392855.2,286046999.9,N
1588392875.0,286046998.3,N
1588392875.9,286046998.3,N
1588392895.7,286047000.1,N
1588392915.6,286047001.6,N
1588392935.4,286047002.0,N
1588392955.3,286047000.9,N
1588392975.1,286047000.1,N
1588392995.8,286047004.1,Y
1588393015.7,286046999.0,P
1588393035.5,286046999.1,N
1588393055.4,286046996.7,P
1588393075.2,286046996.5,N
1588393095.0,286046997.2,N
1588393095.9,286046997.2,N
1588393115.8,286046999.4,N
1588393135.6,286046998.8,N
1588393155.4,286046998.3,N
1588393175.3,286047000.6,N
1588393195.1,286046998.4,N
1588393215.9,286046998.8,N
1588393235.7,286046998.6,N
1588393255.5,286046994.9,Y
1588393275.4,286046997.4,P
1588393295.2,286046996.5,P
1588393315.1,286046998.2,N
1588393316.0,286046998.2,N
1588393335.8,286046999.9,N
1588393355.6,286047000.3,N
1588393375.5,286047001.6,N
1588393395.3,286047002.7,N
1588393415.1,286047002.6,N
1588393435.9,286047002.2,N
1588393455.7,286047002.0,N
1588393475.6,286047004.0,N
1588393495.4,286047003.6,N
1588393515.2,286047002.4,N
1588393535.1,286047002.5,N
1588393536.0,286047002.5,N
1588393555.8,286047001.5,N
1588393575.7,286047004.8,N
1588393595.5,286047007.1,Y
1588393615.3,286047003.7,P
1588393635.2,286047004.1,P
1588393655.0,286047003.7,N
1588393655.9,286047003.7,Y
1588393675.8,286046998.2,P
1588393695.6,286047002.8,N
1588393715.4,286047004.7,N
1588393735.3,286047004.0,N
1588393755.1,286047001.4,N
1588393775.8,286047002.1,N
1588393795.7,286046999.0,N
1588393815.5,286046998.2,N
1588393835.4,286046999.9,N
1588393855.2,286047001.2,N
1588393875.0,286047004.1,N
1588393875.9,286047004.1,N
1588393895.8,286047003.4,N
1588393915.6,286047003.7,N
1588393935.5,286047005.7,N
1588393955.3,286047007.6,Y
1588393975.1,286047004.9,P
1588393995.9,286047004.6,P
1588394015.7,286047001.7,N
1588394035.5,286047000.4,N
1588394055.4,286047002.7,N
1588394075.2,286047002.3,N
1588394095.1,286047000.5,N
1588394096.0,286047000.5,N
1588394115.8,286046998.4,N
1588394135.6,286047000.6,N
1588394155.5,286047001.8,N
1588394175.3,286047002.4,N
1588394195.2,286047002.5,N
1588394215.9,286047001.2,N
1588394235.7,286046998.3,N
1588394255.6,286046998.1,N
1588394275.4,286046998.6,N
1588394295.2,286047001.1,N
1588394315.1,286047000.6,N
1588394316.0,286047000.6,N
1588394335.8,286046999.9,N
1588394355.7,286047000.5,N
1588394375.5,286047001.1,N
1588394395.3,286047000.1,N
1588394415.2,286047001.6,N
1588394435.0,286047001.6,N
1588394435.9,286047001.6,N
1588394455.8,286047002.0,N
1588394475.6,286047001.7,N
1588394495.5,286047001.4,N
1588394515.3,286047003.8,N
1588394535.1,286047003.6,N
1588394555.9,286047004.5,Y
1588394575.7,286047001.8,P
1588394595.6,286047002.6,P
1588394615.4,286047001.5,N
1588394635.2,286047006.3,Y
1588394655.1,286047004.3,P
1588394656.0,286047004.3,P
1588394675.8,286047003.7,P
1588394695.7,286047004.4,Y
1588394715.5,286046998.4,P
1588394735.3,286046999.5,N
1588394755.2,286046997.1,N
1588394775.0,286046997.1,N
1588394805.9,286046996.2,E
1588394815.9,286046997.8,N
1588394835.7,286047000.7,P
1588394855.5,286047001.1,N
1588394875.4,286047002.3,N
1588394895.2,286046998.6,N
1588394915.0,286046996.9,N
1588394915.9,286046996.9,N
1588394935.8,286046998.6,N
1588394955.6,286047000.0,N
1588394975.5,286046998.7,N
1588394995.3,286047002.7,N
1588395015.1,286047003.9,N
1588395035.9,286047004.3,N
1588395055.7,286047002.9,N
1588395075.6,286047004.3,N
1588395095.4,286046999.9,N
1588395115.2,286047001.1,N
1588395135.1,286046998.5,N
1588395136.0,286046998.5,N
1588395155.8,286046998.4,N
1588395175.6,286047002.2,N
1588395195.5,286047002.3,N
1588395215.3,286047001.8,N
1588395235.2,286047001.2,N
1588395255.9,286047002.1,N
1588395275.7,286047000.2,N
1588395295.6,286047003.9,N
1588395315.4,286047001.7,N
1588395335.3,286047004.0,N
1588395355.1,286047000.0,N
1588395356.0,286047000.0,N
1588395375.8,286047000.2,N
1588395395.7,286047002.8,N
1588395415.5,286047000.6,N
1588395435.3,286046999.1,N
1588395455.2,286046999.6,N
1588395475.0,286047000.5,N
1588395475.9,286047000.5,N
1588395495.8,286046997.0,N
1588395515.6,286047001.2,N
1588395535.4,286046996.9,N
1588395555.3,286046997.8,N
1588395575.1,286046998.9,N
1588395595.9,286046999.7,N
